This is the latest recevied weather packets stored in our database for station/object ZS2JO. If no packets are shown the sender has not sent any weather packets the latest 10 day(s).
| Time | Temp. | Humidity | Pressure | Rain* | Wind** | Luminosity | Snow |
|---|---|---|---|---|---|---|---|
| 1778239946 | 14.44° C | 90% | 1020.9 hPa | 0 mm | - | 285 W/m² | - |
| 1778239642 | 14.44° C | 93% | 1020.9 hPa | 0 mm | - | 260 W/m² | - |
| 1778239338 | 14.44° C | 92% | 1021 hPa | 0 mm | - | 244 W/m² | - |
| 1778239035 | 15° C | 91% | 1021.1 hPa | 0 mm | - | 216 W/m² | - |
| 1778238733 | 14.44° C | 90% | 1021 hPa | 0 mm | - | 236 W/m² | - |
| 1778238430 | 14.44° C | 89% | 1021.1 hPa | 0 mm | - | 229 W/m² | - |
| 1778238127 | 14.44° C | 88% | 1021.2 hPa | 0 mm | - | 233 W/m² | - |
| 1778237826 | 15° C | 86% | 1021.3 hPa | 0 mm | - | 235 W/m² | - |
| 1778237524 | 15° C | 84% | 1021.4 hPa | 0 mm | - | 195 W/m² | - |
| 1778237221 | 15.56° C | 85% | 1021.1 hPa | 0 mm | - | 167 W/m² | - |
| 1778236918 | 16.11° C | 84% | 1021.3 hPa | 0 mm | - | 317 W/m² | - |
| 1778236615 | 16.11° C | 83% | 1021 hPa | 0 mm | - | 369 W/m² | - |
| 1778236312 | 16.11° C | 83% | 1021.3 hPa | 0 mm | - | 274 W/m² | - |
| 1778236009 | 15.56° C | 84% | 1021.4 hPa | 0 mm | - | 370 W/m² | - |
| 1778235707 | 16.11° C | 83% | 1021.3 hPa | 0 mm | - | 262 W/m² | - |
| 1778235404 | 16.11° C | 82% | 1021.5 hPa | 0 mm | - | 228 W/m² | - |
| 1778235102 | 16.11° C | 81% | 1021.5 hPa | 0 mm | - | 196 W/m² | - |
| 1778234799 | 16.67° C | 80% | 1021.5 hPa | 0 mm | - | 221 W/m² | - |
| 1778234497 | 16.67° C | 80% | 1021.6 hPa | 0 mm | - | 281 W/m² | - |
| 1778234193 | 17.22° C | 81% | 1021.6 hPa | 0 mm | - | 380 W/m² | - |
| 1778233891 | 16.67° C | 82% | 1021.8 hPa | 0 mm | - | 404 W/m² | - |
| 1778233587 | 16.67° C | 81% | 1021.6 hPa | 0 mm | - | 385 W/m² | - |
| 1778233284 | 16.67° C | 81% | 1021.8 hPa | 0 mm | - | 422 W/m² | - |
| 1778232981 | 16.67° C | 81% | 1021.8 hPa | 0 mm | - | 338 W/m² | - |
| 1778232679 | 16.67° C | 80% | 1021.9 hPa | 0 mm | - | 549 W/m² | - |
* Rain latest hour (hover to see other rain measurements)
** Current wind speed in m/s (hover to see current wind gust speed)